User: anonymous
Location: Muenchen
(48.1800°N, 11.5800°E)
Time: 23:05:16
(UTC+02:00)
Language:

Iridium 73 - Orbit

View from above orbital plane
View from above orbital plane
View from above satellite
View from above satellite

Ground track
Ground track

The orbit data is extracted from the following two-line orbital elements,

1 25344U 98032C   14113.20932553  .00000705  00000-0  18357-3 0  6478
2 25344 086.4415 329.1392 0001583 093.8136 044.4610 14.48245675840911
Epoch (UTC): 23 April 2014 05:01:25
Eccentricity: 0.0001583
inclination: 86.4415°
perigee height: 730 km
apogee height: 732 km
right ascension of ascending node: 329.1392°
argument of perigee: 93.8136°
revolutions per day: 14.48245675
mean anomaly at epoch: 44.4610°
orbit number at epoch: 84091

The dashed part of the orbit path shows where the satellite is in the earth's shadow,  

DLR